Waterloo, IA

4:26 PM CDT on April 20, 2018 (GMT -0500)
Waterloo Municipal

Weather History for KALO - October, 2012

Change the Weather History Date:

Wednesday, October 24, 2012

  Actual Average Record
Temperature  
Mean Temperature 69 °F 47 °F  
Max Temperature 76 °F 58 °F 81 °F (1899)
Min Temperature 61 °F 36 °F 19 °F (1999)
Degree Days  
Heating Degree Days 0 18  
Month to date heating degree days 324 331  
Since 1 July heating degree days 506 489  
Cooling Degree Days 4 0  
Month to date cooling degree days 7 8  
Year to date cooling degree days 1083 798  
Growing Degree Days 18 (Base 50)    
Moisture  
Dew Point 64 °F    
Average Humidity 81    
Maximum Humidity 93    
Minimum Humidity 68    
Precipitation  
Precipitation T in 0.08 in 1.09 in (1908)
Month to date precipitation 3.70 1.97  
Year to date precipitation 21.02 30.88  
Snow  
Snow 0.00 in 0.00 in 1.20 in (1938)
Month to date snowfall 0.0 0.1  
Since 1 July snowfall 0.0 0.1  
Since 1 September snowfall 0.0 0.1  
Snow Depth 0.00 in    
Sea Level Pressure  
Sea Level Pressure 29.75 in    
Wind  
Wind Speed 10 mph (South)    
Max Wind Speed 22 mph    
Max Gust Speed 26 mph    
Visibility 9 miles    
Events      
T = Trace of Precipitation, MM = Missing Value Source: NWS Daily Summary

Daily Weather History Graph

Daily Weather History Graph

Search for Another Location

Airport or City:

Astronomy

Oct. 24, 2012 Rise Set
Actual Time 7:34 AM CDT 6:12 PM CDT
Civil Twilight 7:05 AM CDT 6:41 PM CDT
Nautical Twilight 6:32 AM CDT 7:14 PM CDT
Astronomical Twilight 5:59 AM CDT 7:47 PM CDT
Moon 3:34 PM CDT (10/24) 2:23 AM CDT (10/24)
Length of Visible Light 11h 36m
Length of Day
10h 38m
Waxing Gibbous, 76% of the Moon is Illuminated
Oct 24
Waxing Gibbous
Oct 29
Full
Nov 6
Last Quarter
Nov 13
New
Nov 20
First Quarter

Hourly Weather History & Observations

Time (CDT) Temp. Dew Point Humidity Pressure Visibility Wind Dir Wind Speed Gust Speed Precip Events Conditions
12:54 AM 66.9 °F 64.0 °F 90% 29.77 in 10.0 mi South 12.7 mph - N/A   Mostly Cloudy
1:36 AM 66.2 °F 64.4 °F 94% 29.79 in 10.0 mi South 11.5 mph - 0.00 in   Overcast
1:54 AM 68.0 °F 64.0 °F 87% 29.78 in 10.0 mi South 10.4 mph - 0.00 in   Overcast
2:46 AM 66.2 °F 64.4 °F 94% 29.78 in 10.0 mi South 9.2 mph - N/A   Mostly Cloudy
2:54 AM 66.9 °F 64.0 °F 90% 29.78 in 10.0 mi South 9.2 mph - N/A   Partly Cloudy
3:54 AM 64.9 °F 63.0 °F 93% 29.77 in 9.0 mi South 5.8 mph - N/A   Clear
4:54 AM 64.0 °F 63.0 °F 96% 29.78 in 8.0 mi SSE 5.8 mph - N/A   Clear
5:54 AM 64.0 °F 62.1 °F 93% 29.78 in 6.0 mi SSE 4.6 mph - N/A   Clear
6:54 AM 62.1 °F 61.0 °F 96% 29.80 in 5.0 mi SE 5.8 mph - N/A   Mostly Cloudy
7:54 AM 64.0 °F 63.0 °F 96% 29.81 in 5.0 mi SSE 4.6 mph - N/A   Overcast
8:38 AM 64.4 °F 62.6 °F 94% 29.80 in 5.0 mi SE 8.1 mph - N/A   Overcast
8:54 AM 64.9 °F 63.0 °F 93% 29.80 in 5.0 mi SSE 6.9 mph - N/A   Overcast
9:13 AM 64.4 °F 62.6 °F 94% 29.80 in 5.0 mi SSE 6.9 mph - N/A   Overcast
9:54 AM 66.0 °F 64.0 °F 93% 29.78 in 6.0 mi SSE 10.4 mph - N/A   Overcast
10:24 AM 68.0 °F 64.4 °F 88% 29.79 in 7.0 mi SSE 10.4 mph - N/A   Overcast
10:41 AM 69.8 °F 64.4 °F 83% 29.79 in 8.0 mi SSE 9.2 mph - N/A   Overcast
10:54 AM 70.0 °F 66.0 °F 87% 29.78 in 9.0 mi South 9.2 mph - N/A   Overcast
11:49 AM 73.4 °F 66.2 °F 78% 29.77 in 10.0 mi South 12.7 mph - N/A   Mostly Cloudy
11:54 AM 73.9 °F 66.9 °F 79% 29.75 in 10.0 mi South 15.0 mph - N/A   Mostly Cloudy
12:46 PM 75.2 °F 66.2 °F 73% 29.75 in 10.0 mi SSW 11.5 mph 18.4 mph N/A   Mostly Cloudy
12:54 PM 75.0 °F 66.0 °F 73% 29.74 in 10.0 mi SSW 9.2 mph - N/A   Mostly Cloudy
1:54 PM 73.9 °F 66.0 °F 76% 29.72 in 10.0 mi SSW 15.0 mph - N/A   Overcast
2:10 PM 73.4 °F 66.2 °F 78% 29.73 in 10.0 mi SSW 12.7 mph - N/A   Overcast
2:54 PM 75.0 °F 66.0 °F 73% 29.70 in 10.0 mi SSW 13.8 mph - N/A   Overcast
3:54 PM 73.4 °F 62.6 °F 69% 29.71 in 10.0 mi SSW 17.3 mph 25.3 mph N/A   Overcast
4:54 PM 73.0 °F 63.0 °F 71% 29.71 in 10.0 mi SSW 15.0 mph - N/A   Overcast
5:54 PM 72.0 °F 63.0 °F 73% 29.70 in 10.0 mi South 6.9 mph - N/A   Overcast
6:54 PM 70.0 °F 63.0 °F 78% 29.70 in 10.0 mi SSE 5.8 mph - N/A   Overcast
7:54 PM 69.1 °F 63.0 °F 81% 29.70 in 10.0 mi SSE 5.8 mph - N/A   Mostly Cloudy
8:54 PM 70.0 °F 63.0 °F 78% 29.67 in 10.0 mi SE 6.9 mph - N/A   Mostly Cloudy
9:54 PM 71.1 °F 64.0 °F 78% 29.66 in 10.0 mi South 12.7 mph - N/A   Mostly Cloudy
10:54 PM 71.1 °F 64.0 °F 78% 29.64 in 10.0 mi South 13.8 mph - N/A   Partly Cloudy
11:54 PM 71.1 °F 64.0 °F 78% 29.64 in 10.0 mi South 9.2 mph - N/A   Overcast